This is the latest recevied weather packets stored in our database for station/object KN6WGU. If no packets are shown the sender has not sent any weather packets the latest 10 day(s).
| Time | Temp. | Humidity | Pressure | Rain* | Wind** | Luminosity | Snow |
|---|---|---|---|---|---|---|---|
| 1777662392 | 6.67° C | 89% | 1007.1 hPa | 0 mm | - | 273 W/m² | - |
| 1777662087 | 6.67° C | 89% | 1007.2 hPa | 0 mm | - | 208 W/m² | - |
| 1777661783 | 6.11° C | 89% | 1007.2 hPa | 0 mm | - | 123 W/m² | - |
| 1777661479 | 6.67° C | 88% | 1007 hPa | 0 mm | - | 108 W/m² | - |
| 1777661175 | 6.67° C | 89% | 1007.1 hPa | 1.27 mm | - | 250 W/m² | - |
| 1777660870 | 6.67° C | 91% | 1007.2 hPa | 1.27 mm | - | 196 W/m² | - |
| 1777660567 | 6.11° C | 92% | 1006.9 hPa | 1.78 mm | - | 258 W/m² | - |
| 1777660264 | 6.11° C | 93% | 1006.9 hPa | 1.78 mm | - | 207 W/m² | - |
| 1777659960 | 6.11° C | 93% | 1006.8 hPa | 0 mm | - | 139 W/m² | - |
| 1777659657 | 6.11° C | 93% | 1006.7 hPa | 0 mm | - | 73 W/m² | - |
| 1777659354 | 6.67° C | 93% | 1006.6 hPa | 1.78 mm | - | 116 W/m² | - |
| 1777659051 | 6.11° C | 93% | 1006.7 hPa | 1.78 mm | - | 160 W/m² | - |
| 1777658749 | 6.11° C | 93% | 1006.8 hPa | 0 mm | - | 159 W/m² | - |
| 1777658445 | 6.11° C | 94% | 1006.4 hPa | 1.27 mm | - | 87 W/m² | - |
| 1777658142 | 6.11° C | 94% | 1006.4 hPa | 1.27 mm | - | 68 W/m² | - |
| 1777657838 | 6.11° C | 93% | 1006.6 hPa | 1.78 mm | - | 50 W/m² | - |
| 1777657536 | 6.11° C | 93% | 1006.4 hPa | 1.78 mm | - | 38 W/m² | - |
| 1777657233 | 6.11° C | 93% | 1006.5 hPa | 0 mm | - | 42 W/m² | - |
| 1777656931 | 6.11° C | 93% | 1006.4 hPa | 1.27 mm | - | 60 W/m² | - |
| 1777656627 | 6.11° C | 93% | 1006.2 hPa | 1.27 mm | - | 66 W/m² | - |
| 1777656322 | 6.11° C | 92% | 1006.1 hPa | 0 mm | - | 86 W/m² | - |
| 1777656018 | 6.11° C | 92% | 1006.3 hPa | 0 mm | - | 64 W/m² | - |
| 1777655715 | 6.11° C | 92% | 1006.3 hPa | 1.78 mm | - | 76 W/m² | - |
| 1777655411 | 6.11° C | 92% | 1006.3 hPa | 1.78 mm | - | 116 W/m² | - |
| 1777655108 | 6.11° C | 92% | 1006.3 hPa | 0 mm | - | 83 W/m² | - |
* Rain latest hour (hover to see other rain measurements)
** Current wind speed in m/s (hover to see current wind gust speed)